Time,TemperatureF,DewpointF,PressureIn,WindDirection,WindDirectionDegrees,WindSpeedMPH,WindSpeedGustMPH,Humidity,HourlyPrecipIn,Conditions,Clouds,dailyrainin,SoftwareType,DateUTC
2013-03-07 00:11:00,36.9,34.0,29.89,ENE,65,3.0,19.0,90,0.00,,,0.04,weatherlink.com 1.10,2013-03-07 05:11:00,
2013-03-07 00:26:00,36.7,34.0,29.88,ENE,73,9.0,18.0,91,0.00,,,0.00,weatherlink.com 1.10,2013-03-07 05:26:00,
2013-03-07 00:41:00,36.3,34.0,29.88,East,80,6.0,16.0,92,0.00,,,0.00,weatherlink.com 1.10,2013-03-07 05:41:00,
2013-03-07 00:56:00,36.1,34.0,29.87,NE,56,8.0,18.0,92,0.01,,,0.01,weatherlink.com 1.10,2013-03-07 05:56:00,
2013-03-07 01:11:00,36.0,34.0,29.88,North,2,6.0,14.0,93,0.01,,,0.01,weatherlink.com 1.10,2013-03-07 06:11:00,
2013-03-07 01:26:00,35.7,34.0,29.87,North,350,8.0,15.0,93,0.03,,,0.03,weatherlink.com 1.10,2013-03-07 06:26:00,
2013-03-07 01:41:00,35.7,34.0,29.86,East,93,6.0,14.0,93,0.03,,,0.03,weatherlink.com 1.10,2013-03-07 06:41:00,
2013-03-07 01:56:00,35.6,34.0,29.86,NNE,33,12.0,17.0,93,0.03,,,0.04,weatherlink.com 1.10,2013-03-07 06:56:00,
2013-03-07 02:11:00,35.5,34.0,29.85,North,11,11.0,15.0,93,0.04,,,0.05,weatherlink.com 1.10,2013-03-07 07:11:00,
2013-03-07 02:26:00,35.3,34.0,29.85,East,84,2.0,19.0,93,0.02,,,0.05,weatherlink.com 1.10,2013-03-07 07:26:00,
2013-03-07 02:41:00,35.1,33.0,29.84,ESE,109,10.0,15.0,93,0.03,,,0.06,weatherlink.com 1.10,2013-03-07 07:41:00,
2013-03-07 02:56:00,34.7,33.0,29.84,NE,41,4.0,15.0,93,0.03,,,0.07,weatherlink.com 1.10,2013-03-07 07:56:00,
2013-03-07 03:11:00,34.4,33.0,29.84,SW,234,5.0,14.0,94,0.03,,,0.08,weatherlink.com 1.10,2013-03-07 08:11:00,
2013-03-07 03:26:00,34.6,33.0,29.84,North,9,8.0,17.0,94,0.04,,,0.09,weatherlink.com 1.10,2013-03-07 08:26:00,
2013-03-07 03:41:00,34.9,33.0,29.85,NW,314,5.0,14.0,94,0.03,,,0.09,weatherlink.com 1.10,2013-03-07 08:41:00,
2013-03-07 03:56:00,35.0,34.0,29.85,NE,45,5.0,15.0,94,0.03,,,0.10,weatherlink.com 1.10,2013-03-07 08:56:00,
2013-03-07 04:11:00,34.7,33.0,29.85,ENE,65,3.0,17.0,94,0.03,,,0.11,weatherlink.com 1.10,2013-03-07 09:11:00,
2013-03-07 04:26:00,34.1,33.0,29.85,NW,320,8.0,11.0,94,0.02,,,0.11,weatherlink.com 1.10,2013-03-07 09:26:00,
2013-03-07 04:41:00,34.1,33.0,29.85,NE,37,4.0,15.0,94,0.03,,,0.12,weatherlink.com 1.10,2013-03-07 09:41:00,
2013-03-07 04:56:00,34.1,33.0,29.86,NNW,332,12.0,15.0,94,0.03,,,0.13,weatherlink.com 1.10,2013-03-07 09:56:00,
2013-03-07 05:11:00,34.0,33.0,29.86,NNW,345,4.0,14.0,94,0.02,,,0.13,weatherlink.com 1.10,2013-03-07 10:11:00,
2013-03-07 05:26:00,33.8,33.0,29.86,NW,321,1.0,16.0,95,0.03,,,0.14,weatherlink.com 1.10,2013-03-07 10:26:00,
2013-03-07 05:41:00,33.6,32.0,29.86,North,9,4.0,12.0,95,0.02,,,0.14,weatherlink.com 1.10,2013-03-07 10:41:00,
2013-03-07 05:56:00,33.5,32.0,29.86,NNE,30,2.0,10.0,95,0.01,,,0.14,weatherlink.com 1.10,2013-03-07 10:56:00,
2013-03-07 06:11:00,33.5,32.0,29.86,NNE,25,12.0,12.0,95,0.02,,,0.15,weatherlink.com 1.10,2013-03-07 11:11:00,
2013-03-07 06:26:00,33.6,32.0,29.86,NNE,12,3.0,12.0,95,0.02,,,0.16,weatherlink.com 1.10,2013-03-07 11:26:00,
2013-03-07 06:41:00,33.6,32.0,29.86,NE,34,7.0,10.0,95,0.02,,,0.16,weatherlink.com 1.10,2013-03-07 11:41:00,
2013-03-07 06:56:00,33.7,33.0,29.86,North,354,0.0,12.0,95,0.03,,,0.17,weatherlink.com 1.10,2013-03-07 11:56:00,
2013-03-07 07:11:00,33.7,33.0,29.87,North,6,2.0,9.0,95,0.03,,,0.18,weatherlink.com 1.10,2013-03-07 12:11:00,
2013-03-07 07:26:00,33.8,33.0,29.87,NE,52,5.0,13.0,95,0.03,,,0.19,weatherlink.com 1.10,2013-03-07 12:26:00,
2013-03-07 07:41:00,33.8,33.0,29.87,NE,44,8.0,11.0,95,0.03,,,0.19,weatherlink.com 1.10,2013-03-07 12:41:00,
2013-03-07 07:56:00,34.0,33.0,29.87,ENE,58,3.0,14.0,95,0.04,,,0.21,weatherlink.com 1.10,2013-03-07 12:56:00,
2013-03-07 08:11:00,34.0,33.0,29.87,NE,39,11.0,13.0,95,0.04,,,0.22,weatherlink.com 1.10,2013-03-07 13:11:00,
2013-03-07 08:27:00,34.2,33.0,29.87,SE,125,2.0,15.0,95,0.04,,,0.23,weatherlink.com 1.10,2013-03-07 13:27:00,
2013-03-07 08:42:00,34.3,33.0,29.87,NNW,336,1.0,15.0,95,0.06,,,0.25,weatherlink.com 1.10,2013-03-07 13:42:00,
2013-03-07 08:57:00,34.5,33.0,29.87,South,184,0.0,14.0,95,0.06,,,0.27,weatherlink.com 1.10,2013-03-07 13:57:00,
2013-03-07 09:12:00,34.8,34.0,29.86,ENE,58,3.0,16.0,95,0.07,,,0.29,weatherlink.com 1.10,2013-03-07 14:12:00,
2013-03-07 09:27:00,35.1,34.0,29.86,NNE,13,4.0,18.0,95,0.08,,,0.31,weatherlink.com 1.10,2013-03-07 14:27:00,
2013-03-07 09:42:00,35.4,34.0,29.86,North,4,9.0,15.0,95,0.09,,,0.34,weatherlink.com 1.10,2013-03-07 14:42:00,
2013-03-07 09:57:00,35.7,34.0,29.86,NNW,345,2.0,20.0,95,0.09,,,0.36,weatherlink.com 1.10,2013-03-07 14:57:00,
2013-03-07 10:12:00,35.7,34.0,29.86,NW,309,15.0,16.0,94,0.10,,,0.39,weatherlink.com 1.10,2013-03-07 15:12:00,
2013-03-07 10:27:00,35.6,34.0,29.86,North,6,6.0,14.0,94,0.10,,,0.41,weatherlink.com 1.10,2013-03-07 15:27:00,
2013-03-07 10:42:00,35.9,34.0,29.87,NNW,338,3.0,17.0,94,0.09,,,0.43,weatherlink.com 1.10,2013-03-07 15:42:00,
2013-03-07 10:57:00,36.2,35.0,29.86,NE,44,3.0,16.0,94,0.09,,,0.45,weatherlink.com 1.10,2013-03-07 15:57:00,
2013-03-07 11:12:00,36.1,35.0,29.87,NE,51,9.0,17.0,94,0.08,,,0.47,weatherlink.com 1.10,2013-03-07 16:12:00,
2013-03-07 11:27:00,36.1,35.0,29.87,ENE,60,10.0,19.0,94,0.08,,,0.49,weatherlink.com 1.10,2013-03-07 16:27:00,
2013-03-07 11:42:00,36.0,35.0,29.87,NE,35,6.0,15.0,94,0.07,,,0.50,weatherlink.com 1.10,2013-03-07 16:42:00,
2013-03-07 11:57:00,36.0,35.0,29.87,NNW,348,15.0,16.0,94,0.07,,,0.52,weatherlink.com 1.10,2013-03-07 16:57:00,
2013-03-07 12:12:00,36.0,35.0,29.87,NE,44,6.0,14.0,94,0.06,,,0.53,weatherlink.com 1.10,2013-03-07 17:12:00,
2013-03-07 12:27:00,36.1,35.0,29.87,NNW,347,9.0,19.0,94,0.06,,,0.55,weatherlink.com 1.10,2013-03-07 17:27:00,
2013-03-07 12:42:00,36.2,35.0,29.87,ENE,58,4.0,16.0,94,0.05,,,0.56,weatherlink.com 1.10,2013-03-07 17:42:00,
2013-03-07 12:57:00,36.1,35.0,29.87,ENE,58,12.0,15.0,94,0.05,,,0.57,weatherlink.com 1.10,2013-03-07 17:57:00,
2013-03-07 13:12:00,36.0,35.0,29.87,West,276,6.0,20.0,94,0.03,,,0.57,weatherlink.com 1.10,2013-03-07 18:12:00,
2013-03-07 13:27:00,35.7,34.0,29.87,NW,324,7.0,15.0,94,0.03,,,0.58,weatherlink.com 1.10,2013-03-07 18:27:00,
2013-03-07 13:42:00,35.4,34.0,29.86,NE,52,7.0,16.0,94,0.03,,,0.59,weatherlink.com 1.10,2013-03-07 18:42:00,
2013-03-07 13:57:00,35.0,34.0,29.86,NNE,24,2.0,18.0,94,0.03,,,0.60,weatherlink.com 1.10,2013-03-07 18:57:00,
2013-03-07 14:42:00,34.4,33.0,29.87,North,354,1.0,12.0,94,0.04,,,0.63,weatherlink.com 1.10,2013-03-07 19:42:00,
2013-03-07 14:57:00,34.2,33.0,29.87,NNE,19,9.0,14.0,94,0.03,,,0.63,weatherlink.com 1.10,2013-03-07 19:57:00,
2013-03-07 15:12:00,33.9,32.0,29.87,NNE,16,12.0,12.0,94,0.03,,,0.64,weatherlink.com 1.10,2013-03-07 20:12:00,
2013-03-07 15:27:00,33.6,32.0,29.87,NNW,346,2.0,18.0,94,0.02,,,0.64,weatherlink.com 1.10,2013-03-07 20:27:00,
2013-03-07 15:42:00,33.5,32.0,29.87,ENE,60,3.0,14.0,94,0.02,,,0.65,weatherlink.com 1.10,2013-03-07 20:42:00,
2013-03-07 15:57:00,33.5,32.0,29.87,NNW,330,4.0,14.0,95,0.02,,,0.65,weatherlink.com 1.10,2013-03-07 20:57:00,
2013-03-07 16:12:00,33.4,32.0,29.88,North,349,8.0,14.0,95,0.01,,,0.65,weatherlink.com 1.10,2013-03-07 21:12:00,
2013-03-07 16:27:00,33.4,32.0,29.87,NNW,340,7.0,15.0,94,0.02,,,0.66,weatherlink.com 1.10,2013-03-07 21:27:00,
2013-03-07 16:42:00,33.3,32.0,29.88,North,5,2.0,15.0,95,0.01,,,0.66,weatherlink.com 1.10,2013-03-07 21:42:00,
2013-03-07 16:59:00,33.2,32.0,29.88,NNW,336,5.0,12.0,95,0.01,,,0.66,weatherlink.com 1.10,2013-03-07 21:59:00,
2013-03-07 17:12:00,33.2,32.0,29.89,NW,306,7.0,15.0,95,0.01,,,0.66,weatherlink.com 1.10,2013-03-07 22:12:00,
2013-03-07 17:27:00,33.2,32.0,29.89,NNE,25,4.0,11.0,95,0.00,,,0.66,weatherlink.com 1.10,2013-03-07 22:27:00,
2013-03-07 17:42:00,33.1,32.0,29.89,NNW,337,5.0,10.0,95,0.00,,,0.66,weatherlink.com 1.10,2013-03-07 22:42:00,
2013-03-07 17:57:00,33.1,32.0,29.89,NNW,340,6.0,10.0,95,0.00,,,0.66,weatherlink.com 1.10,2013-03-07 22:57:00,
2013-03-07 18:12:00,33.2,32.0,29.89,East,101,3.0,9.0,96,0.00,,,0.66,weatherlink.com 1.10,2013-03-07 23:12:00,
2013-03-07 18:27:00,33.2,32.0,29.89,North,2,3.0,11.0,96,0.00,,,0.66,weatherlink.com 1.10,2013-03-07 23:27:00,
2013-03-07 18:42:00,33.3,32.0,29.90,North,352,5.0,14.0,96,0.00,,,0.66,weatherlink.com 1.10,2013-03-07 23:42:00,
2013-03-07 18:57:00,33.3,32.0,29.90,North,357,1.0,7.0,95,0.00,,,0.66,weatherlink.com 1.10,2013-03-07 23:57:00,
2013-03-07 19:12:00,33.3,32.0,29.90,NNW,335,4.0,10.0,95,0.00,,,0.66,weatherlink.com 1.10,2013-03-08 00:12:00,
2013-03-07 19:27:00,33.3,32.0,29.90,NNW,345,3.0,9.0,95,0.00,,,0.66,weatherlink.com 1.10,2013-03-08 00:27:00,
2013-03-07 19:42:00,33.4,32.0,29.89,NNW,347,7.0,9.0,95,0.01,,,0.67,weatherlink.com 1.10,2013-03-08 00:42:00,
2013-03-07 19:57:00,33.3,32.0,29.89,North,352,3.0,13.0,95,0.01,,,0.67,weatherlink.com 1.10,2013-03-08 00:57:00,
2013-03-07 20:12:00,33.3,32.0,29.89,SW,226,2.0,10.0,95,0.01,,,0.67,weatherlink.com 1.10,2013-03-08 01:12:00,
2013-03-07 20:27:00,33.3,32.0,29.89,ENE,58,5.0,10.0,96,0.01,,,0.67,weatherlink.com 1.10,2013-03-08 01:27:00,
2013-03-07 20:42:00,33.3,32.0,29.89,NNE,15,2.0,9.0,96,0.00,,,0.67,weatherlink.com 1.10,2013-03-08 01:42:00,
2013-03-07 20:57:00,33.3,32.0,29.89,North,350,1.0,12.0,96,0.00,,,0.67,weatherlink.com 1.10,2013-03-08 01:57:00,
2013-03-07 21:12:00,33.3,32.0,29.88,NNE,28,3.0,12.0,96,0.00,,,0.67,weatherlink.com 1.10,2013-03-08 02:12:00,
2013-03-07 21:27:00,33.3,32.0,29.88,North,349,2.0,10.0,96,0.00,,,0.67,weatherlink.com 1.10,2013-03-08 02:27:00,
2013-03-07 21:43:00,33.2,32.0,29.88,North,358,2.0,11.0,96,0.00,,,0.67,weatherlink.com 1.10,2013-03-08 02:43:00,
2013-03-07 21:58:00,33.2,32.0,29.88,North,351,4.0,9.0,96,0.00,,,0.67,weatherlink.com 1.10,2013-03-08 02:58:00,
2013-03-07 22:13:00,33.3,32.0,29.87,NE,45,3.0,11.0,96,0.00,,,0.67,weatherlink.com 1.10,2013-03-08 03:13:00,
2013-03-07 22:28:00,33.4,32.0,29.87,ENE,63,6.0,11.0,96,0.01,,,0.68,weatherlink.com 1.10,2013-03-08 03:28:00,
2013-03-07 22:43:00,33.3,32.0,29.87,ENE,57,5.0,7.0,96,0.01,,,0.68,weatherlink.com 1.10,2013-03-08 03:43:00,
2013-03-07 22:58:00,33.3,32.0,29.87,ENE,64,0.0,12.0,96,0.01,,,0.68,weatherlink.com 1.10,2013-03-08 03:58:00,
2013-03-07 23:13:00,33.3,32.0,29.87,NNW,330,3.0,8.0,95,0.01,,,0.68,weatherlink.com 1.10,2013-03-08 04:13:00,
2013-03-07 23:28:00,33.3,32.0,29.86,North,6,2.0,11.0,96,0.00,,,0.68,weatherlink.com 1.10,2013-03-08 04:28:00,
2013-03-07 23:43:00,33.3,32.0,29.86,North,11,4.0,14.0,96,0.01,,,0.69,weatherlink.com 1.10,2013-03-08 04:43:00,
2013-03-07 23:58:00,33.3,32.0,29.85,NW,321,0.0,10.0,96,0.01,,,0.69,weatherlink.com 1.10,2013-03-08 04:58:00,